Overview Statistics Trail Chart Weather Telemetry Raw packets
 

This is the latest recevied weather packets stored in our database for station/object VU2EXP-13. If no packets are shown the sender has not sent any weather packets the latest 10 day(s).

<< 9 10 11 12 13 14 15 >>
Time Temp. Humidity Pressure Rain* Wind** Luminosity Snow
1788089419 32.22° C 51% 990.5 hPa - - - -
1788088519 32.22° C 50% 990.3 hPa - - - -
1788087618 32.78° C 49% 990.3 hPa - - - -
1788086719 32.78° C 49% 990.3 hPa - - - -
1788085819 32.78° C 49% 990.3 hPa - - - -
1788084918 32.78° C 49% 990.3 hPa - - - -
1788084018 33.33° C 48% 990.4 hPa - - - -
1788083118 33.33° C 47% 990.6 hPa - - - -
1788082218 33.89° C 47% 990.5 hPa - - - -
1788081318 33.33° C 48% 990.9 hPa - - - -
1788080418 33.33° C 47% 990.8 hPa - - - -
1788079518 33.33° C 48% 990.8 hPa - - - -
1788078618 33.89° C 47% 991 hPa - - - -
1788077717 33.89° C 46% 991.1 hPa - - - -
1788076817 33.33° C 47% 991.2 hPa - - - -
1788075931 34.44° C 45% 991.4 hPa - - - -
1788075017 33.33° C 48% 991.6 hPa - - - -
1788074117 33.89° C 46% 991.6 hPa - - - -
1788073217 33.33° C 47% 991.8 hPa - - - -
1788072317 32.78° C 50% 992 hPa - - - -
1788071417 32.22° C 52% 992.2 hPa - - - -
1788070516 31.67° C 56% 992.3 hPa - - - -
1788069616 30.56° C 57% 992.4 hPa - - - -
1788068716 31.11° C 56% 992.4 hPa - - - -
1788067816 31.67° C 56% 992.5 hPa - - - -

* Rain since midnight (hover to see other rain measurements)
** Current wind speed in m/s (hover to see current wind gust speed)